Wind_Speed
30 31 29 27 26 23 20 21 24 24 27 30 31 26 22 21 22 23 23 23 22 21 20 22 23 23 22 24 24 24 26 28 30 29 27 23 20 18 21 23 23 26 27 28 29
31 36 34 31 29 27 28 29 28 29 27 30 29 23 21 19 22 23 22 22 22 21 23 24 24 23 23 26 26 25 26 26 24 24 23 22 21 20 21 23 24 25 26 26 27
37 35 34 29 29 31 33 29 28 29 28 30 29 21 22 21 25 20 22 22 21 23 24 24 24 23 23 23 23 22 19 19 18 19 21 21 19 20 21 21 20 21 23 23 25
31 36 35 33 32 32 33 29 29 31 30 32 24 24 21 22 22 21 21 22 21 22 22 23 21 19 18 17 16 15 15 15 15 16 17 18 16 17 18 18 19 22 25 28 29
34 35 34 35 37 36 33 33 36 31 29 27 24 22 21 20 20 20 21 20 20 18 18 18 15 14 13 12 11 11 11 12 11 12 14 16 17 18 20 21 21 22 26 30 29
39 35 33 31 32 34 33 36 27 25 27 25 24 23 21 20 19 21 20 19 16 15 15 14 13 10 9 10 11 12 13 14 14 14 16 18 19 20 22 24 25 27 29 30 32
32 33 31 29 28 26 23 23 25 26 23 22 25 22 20 20 21 21 18 18 15 13 14 10 9 10 10 12 13 14 14 16 19 20 21 22 23 24 25 24 25 28 30 34 38
32 30 28 27 20 21 23 22 19 24 20 22 23 19 19 19 21 19 17 16 13 11 10 10 10 12 13 13 12 15 18 19 39 27 27 27 26 26 27 27 29 33 37 40 45
31 31 32 32 29 31 29 27 22 19 21 22 19 17 17 18 18 17 15 13 11 8 9 11 12 13 14 15 17 17 3 21 30 30 31 30 30 30 30 32 34 37 41 45 46
33 32 32 31 33 28 25 23 23 18 22 20 17 15 16 16 15 15 12 12 12 13 11 9 12 15 17 18 15 6 25 27 30 31 32 31 32 31 32 32 35 39 43 44 48
35 33 29 29 20 20 22 22 18 20 21 17 17 16 15 15 14 14 13 13 13 13 10 11 12 16 16 19 20 21 24 29 31 31 29 29 30 32 36 38 40 44 47 50 53
32 28 26 22 20 20 22 19 19 21 21 17 18 16 15 15 13 13 13 13 11 11 13 15 18 19 19 21 22 22 20 6 35 29 29 30 34 37 42 44 48 51 52 54 58
31 31 25 23 22 22 18 18 22 19 20 19 18 17 17 17 14 12 11 12 12 14 16 17 19 21 22 23 25 26 25 23 29 29 32 37 38 44 46 50 56 57 57 61 61
32 29 28 26 23 20 20 21 22 22 22 20 18 18 18 18 13 11 12 12 14 16 17 19 20 23 25 27 29 29 31 32 33 36 39 37 44 29 43 54 57 62 63 67 67
34 31 31 29 23 22 23 23 24 25 23 20 18 16 15 15 15 13 12 14 16 18 18 19 22 26 28 29 32 34 35 36 36 36 39 41 38 39 45 42 58 65 68 69 73
31 31 30 27 26 25 26 27 26 25 21 19 17 15 15 16 17 15 14 15 18 21 23 24 25 28 30 32 35 37 38 39 39 39 39 41 46 44 49 54 58 65 70 73 76
31 30 28 27 28 28 29 29 27 24 20 19 18 17 16 16 16 16 16 18 21 24 26 27 29 30 32 36 36 38 41 40 44 47 50 45 51 58 60 61 65 68 73 76 79
31 31 30 30 31 33 32 29 26 22 20 20 19 18 18 18 17 18 19 21 25 28 29 32 29 34 37 39 43 45 45 45 47 49 49 54 51 58 65 68 71 74 77 81 84
32 33 34 33 32 31 32 28 25 22 21 21 19 16 17 18 19 21 23 25 27 30 33 36 34 38 42 42 45 50 50 51 53 54 55 58 56 63 71 73 75 78 83 83 82
35 33 32 31 31 30 28 26 26 24 23 22 21 20 21 23 25 25 25 27 30 32 34 37 40 37 42 48 48 49 52 55 56 56 58 65 65 68 70 72 77 80 80 80 82
29 28 27 28 27 25 24 26 25 24 23 22 22 24 25 27 27 26 27 30 32 35 37 41 43 43 43 48 51 54 55 56 60 63 62 63 63 67 72 75 76 76 79 81 79
21 21 20 19 19 19 20 21 23 23 22 22 22 25 27 29 30 30 31 33 37 39 40 43 45 48 47 49 54 54 58 58 57 60 62 64 61 68 70 71 74 75 77 77 73
19 19 17 17 17 18 20 19 19 21 20 18 22 24 27 31 31 34 35 38 39 41 42 45 45 50 50 50 51 54 55 59 62 63 63 65 63 66 69 71 73 76 72 71 65
10 17 21 19 19 16 16 16 16 17 19 21 24 26 30 33 36 38 39 39 40 42 43 45 48 49 50 53 54 56 60 62 64 63 63 61 65 65 66 71 72 72 72 64 59
13 14 13 21 22 21 19 19 19 21 23 25 28 29 30 31 33 35 36 38 40 42 43 45 48 52 54 57 59 61 62 64 62 60 59 61 64 63 67 70 70 71 66 59 51
13 11 12 17 20 21 22 26 24 24 24 23 24 27 30 33 35 36 36 38 40 42 45 49 52 55 59 62 63 63 62 59 56 54 56 59 57 61 66 68 67 65 59 50 39
17 15 14 14 14 15 16 16 17 19 21 24 25 27 29 30 32 34 35 38 42 46 50 55 58 62 62 62 62 61 55 51 51 51 54 54 57 63 62 62 61 56 46 39 28
Wind_Direction
234 236 244 251 255 260 260 272 308 308 309 305 304 306 303 304 305 305 305 303 303 295 292 295 295 294 290 286 287 289 283 281 278 281 284 286 284 273 267 273 277 279 278 278 278
244 239 247 258 253 263 267 277 307 309 309 310 307 311 308 307 307 314 306 305 302 300 300 298 294 290 289 288 289 288 284 285 286 288 290 290 287 283 284 285 286 286 288 289 289
245 248 253 253 264 269 272 270 302 310 307 314 314 306 307 313 315 313 309 305 304 303 302 302 298 294 289 289 289 286 286 289 292 295 296 294 298 299 295 297 302 300 299 296 295
248 249 258 261 267 272 269 276 297 297 301 314 309 306 312 314 317 316 310 306 304 303 303 299 295 291 290 292 291 289 296 306 306 304 304 304 303 299 301 300 303 304 302 300 299
254 254 262 264 268 269 272 280 291 286 300 312 307 306 314 320 321 316 311 306 308 307 305 298 292 296 304 308 310 324 329 325 319 309 300 298 297 301 300 302 301 291 287 288 288
252 253 261 265 264 267 274 285 285 292 303 306 302 305 322 321 322 318 313 309 305 308 309 299 315 320 318 320 323 322 318 317 308 298 293 294 296 294 293 293 287 279 279 282 289
242 249 254 259 266 276 268 283 285 291 304 302 298 307 324 323 323 319 312 310 309 315 319 314 310 310 319 321 325 322 322 320 311 303 297 294 295 298 294 286 280 286 290 291 291
244 251 259 261 260 263 272 281 286 296 297 300 299 309 320 320 320 315 311 314 315 322 317 309 317 318 319 315 315 320 327 7 300 303 301 302 302 299 296 298 298 297 298 299 298
249 256 265 270 272 272 277 276 281 289 296 303 302 309 310 311 313 309 311 319 317 309 301 308 317 321 318 316 326 329 130 254 299 303 305 305 297 296 298 299 301 302 301 300 301
248 263 263 269 268 263 270 270 279 289 298 304 304 302 298 299 303 304 310 308 302 300 295 310 322 316 315 317 326 313 299 304 302 299 300 299 298 295 293 296 299 299 300 302 305
252 256 262 269 258 258 263 271 281 294 298 299 295 289 284 289 295 302 305 302 298 298 307 315 311 306 308 317 319 316 313 313 307 301 298 298 297 299 297 297 298 300 304 307 307
248 254 255 254 253 257 270 281 285 291 297 280 283 277 276 284 288 293 296 296 301 305 311 311 318 315 315 323 319 314 317 310 299 304 303 301 301 303 304 303 303 303 305 307 308
248 250 248 252 264 272 274 277 286 287 288 282 276 269 267 273 279 285 291 293 302 307 311 312 314 313 311 313 314 317 313 308 304 305 308 307 307 310 308 306 305 305 307 307 310
239 246 254 258 268 276 275 278 281 283 275 273 269 265 268 277 278 280 285 295 304 308 312 313 312 312 313 315 316 317 319 316 313 311 309 310 308 305 306 317 305 307 310 311 311
246 249 261 263 273 274 273 277 277 274 268 268 266 264 269 272 270 273 283 298 306 311 313 314 312 313 315 319 323 321 316 313 312 309 310 314 311 304 301 287 303 310 309 311 311
249 254 256 262 269 271 271 270 269 263 260 259 261 261 259 263 272 278 286 301 305 306 309 309 310 313 316 317 318 316 313 317 313 307 304 305 304 306 302 303 304 307 308 310 311
250 256 259 260 264 265 265 262 260 254 254 256 259 263 262 265 273 279 289 296 298 302 305 304 306 307 309 311 313 314 314 313 317 317 311 308 311 307 307 308 308 309 308 308 309
252 256 258 259 262 263 258 255 250 248 247 254 262 266 264 266 271 279 283 290 297 302 303 304 306 306 309 313 314 314 315 315 316 314 313 313 314 308 306 309 309 308 308 308 308
249 253 257 258 260 256 252 245 246 243 245 252 259 264 265 269 275 280 286 291 294 299 303 304 306 307 309 311 315 314 316 316 316 314 312 309 312 310 309 310 309 309 309 311 311
254 257 259 261 257 254 248 247 245 242 244 248 254 259 264 267 271 278 288 295 296 296 296 298 302 307 311 311 312 311 312 313 313 311 311 310 310 308 309 310 310 312 312 313 313
254 257 254 251 247 246 246 247 244 247 252 257 263 269 274 281 286 290 292 292 291 293 299 301 304 306 307 307 308 309 310 309 309 309 310 311 313 311 312 312 313 315 316 316 317
244 234 231 235 238 244 247 249 252 254 258 263 268 274 278 281 285 288 287 287 293 297 299 300 304 304 308 307 307 307 308 310 312 312 312 313 314 312 313 316 317 318 318 318 319
221 225 224 226 234 243 250 250 251 258 260 266 273 276 277 279 281 283 286 290 293 296 299 301 302 303 302 302 305 309 311 312 313 314 315 315 316 317 319 320 320 319 322 323 324
203 216 222 226 235 244 252 255 256 261 267 271 272 274 279 281 284 286 290 293 296 297 298 299 301 302 304 307 308 309 310 311 312 314 315 316 317 319 320 322 323 325 327 329 328
217 238 237 230 233 242 254 258 262 268 272 273 275 277 279 281 284 288 290 293 295 297 299 300 301 302 305 306 307 307 308 310 314 315 317 319 321 322 324 325 328 327 330 333 335
209 214 223 240 248 253 263 263 269 272 274 276 280 282 286 289 292 294 297 297 298 300 302 303 303 303 303 303 304 307 310 312 314 316 317 320 321 324 327 329 330 331 335 339 345
224 229 239 243 250 266 280 287 287 286 285 284 283 284 285 289 292 296 299 305 309 309 305 303 302 301 303 305 308 309 313 313 315 317 319 321 325 328 331 329 331 338 340 346 355
Height
10919 10921 10923 10925 10926 10927 10928 10928 10927 10925 10922 10920 10917 10914 10911 10909 10906 10904 10901 10898 10896 10894 10893 10891 10890 10888 10886 10883 10882 10881 10880 10877 10876 10874 10873 10875 10877 10881 10879 10874 10869 10866 10864 10862 10860
10915 10918 10920 10922 10923 10924 10925 10924 10923 10921 10918 10916 10913 10910 10908 10905 10902 10900 10897 10894 10892 10890 10889 10887 10885 10883 10881 10878 10876 10875 10873 10872 10872 10869 10867 10868 10868 10868 10866 10864 10862 10860 10858 10856 10854
10912 10914 10916 10918 10920 10920 10920 10920 10919 10918 10915 10913 10909 10906 10904 10900 10899 10896 10893 10890 10888 10887 10885 10883 10881 10878 10876 10874 10871 10870 10869 10868 10866 10864 10863 10862 10862 10861 10859 10858 10857 10854 10852 10851 10848
10908 10911 10913 10914 10916 10917 10916 10916 10915 10914 10912 10909 10905 10903 10900 10897 10895 10892 10889 10887 10885 10883 10881 10879 10876 10874 10872 10871 10869 10868 10867 10865 10864 10863 10861 10859 10858 10856 10856 10854 10851 10850 10847 10845 10842
10905 10907 10909 10910 10912 10913 10913 10912 10911 10910 10908 10905 10902 10900 10896 10894 10891 10888 10886 10883 10881 10879 10878 10875 10873 10872 10871 10870 10869 10868 10867 10865 10863 10861 10859 10857 10856 10854 10852 10850 10849 10847 10844 10841 10837
10900 10903 10905 10906 10907 10908 10909 10908 10907 10906 10903 10901 10899 10896 10893 10890 10887 10885 10882 10881 10879 10877 10875 10873 10873 10872 10871 10870 10869 10868 10867 10865 10862 10859 10856 10854 10853 10851 10848 10847 10844 10842 10840 10837 10833
10896 10899 10901 10902 10904 10904 10905 10904 10902 10901 10900 10897 10895 10892 10889 10887 10884 10882 10880 10879 10878 10875 10874 10873 10872 10871 10870 10869 10869 10866 10864 10863 10861 10858 10854 10850 10848 10846 10845 10843 10840 10837 10835 10831 10828
10892 10894 10896 10899 10900 10900 10900 10899 10898 10897 10896 10893 10891 10888 10885 10884 10881 10879 10878 10877 10876 10875 10873 10871 10871 10870 10870 10869 10867 10865 10863 10866 10861 10854 10850 10846 10844 10841 10839 10838 10834 10831 10827 10824 10818
10887 10890 10892 10895 10895 10895 10894 10894 10893 10893 10891 10889 10886 10883 10883 10880 10878 10877 10876 10875 10875 10874 10872 10870 10869 10868 10868 10867 10864 10863 10866 10864 10857 10850 10845 10841 10838 10836 10834 10831 10827 10822 10818 10813 10809
10884 10886 10889 10889 10890 10890 10889 10889 10888 10889 10887 10884 10882 10880 10880 10877 10876 10875 10875 10874 10873 10872 10870 10869 10867 10866 10864 10863 10864 10862 10860 10857 10851 10847 10841 10837 10833 10831 10827 10825 10821 10816 10811 10806 10800
10880 10883 10884 10884 10884 10884 10885 10885 10884 10884 10883 10880 10879 10878 10876 10874 10874 10874 10873 10872 10872 10870 10869 10867 10866 10864 10862 10860 10859 10859 10857 10854 10850 10844 10839 10833 10827 10824 10819 10815 10811 10805 10799 10793 10786
10875 10877 10879 10879 10880 10881 10880 10880 10880 10879 10878 10877 10875 10874 10872 10872 10872 10872 10871 10870 10870 10869 10867 10865 10862 10861 10858 10856 10855 10854 10854 10852 10845 10837 10832 10826 10821 10816 10809 10804 10799 10792 10787 10781 10773
10870 10872 10874 10875 10876 10876 10876 10876 10875 10874 10874 10873 10872 10870 10869 10870 10870 10870 10869 10868 10868 10867 10865 10863 10861 10858 10856 10854 10850 10846 10845 10844 10837 10831 10825 10819 10816 10809 10803 10794 10786 10780 10773 10766 10761
10864 10867 10868 10870 10871 10871 10871 10871 10871 10870 10869 10869 10869 10868 10866 10866 10868 10868 10867 10867 10865 10864 10862 10859 10857 10854 10851 10848 10844 10841 10836 10832 10828 10823 10817 10816 10808 10807 10794 10784 10773 10768 10759 10750 10742
10859 10861 10863 10864 10866 10866 10866 10865 10865 10865 10865 10865 10865 10865 10864 10864 10865 10866 10865 10863 10862 10860 10858 10855 10852 10849 10846 10843 10839 10834 10829 10825 10821 10817 10812 10807 10804 10805 10790 10778 10763 10757 10744 10737 10724
10854 10856 10858 10859 10860 10860 10859 10860 10860 10860 10861 10861 10862 10862 10862 10862 10862 10863 10862 10861 10858 10855 10853 10850 10847 10844 10841 10838 10834 10829 10824 10819 10814 10810 10806 10800 10791 10789 10780 10772 10761 10747 10733 10722 10710
10849 10850 10853 10853 10854 10854 10854 10854 10856 10856 10857 10858 10858 10859 10859 10860 10860 10859 10859 10857 10855 10852 10849 10846 10844 10840 10837 10832 10830 10824 10817 10812 10804 10797 10788 10791 10780 10767 10760 10753 10743 10734 10721 10709 10697
10843 10845 10846 10847 10848 10848 10848 10849 10851 10852 10853 10854 10855 10856 10856 10856 10856 10856 10855 10853 10850 10846 10845 10840 10841 10834 10830 10825 10819 10812 10807 10801 10797 10790 10783 10774 10771 10759 10746 10738 10730 10718 10705 10694 10681
10837 10838 10839 10840 10841 10842 10843 10844 10845 10847 10849 10850 10851 10852 10853 10853 10852 10850 10849 10848 10845 10841 10837 10833 10832 10827 10821 10817 10811 10802 10796 10791 10785 10778 10771 10764 10760 10744 10734 10725 10712 10700 10687 10675 10660
10830 10831 10832 10833 10835 10836 10838 10839 10841 10843 10845 10846 10847 10848 10848 10848 10847 10846 10845 10842 10839 10835 10832 10828 10823 10823 10816 10806 10803 10798 10791 10782 10775 10770 10764 10747 10745 10734 10725 10712 10698 10684 10669 10655 10642
10824 10825 10826 10828 10830 10832 10834 10835 10837 10839 10841 10842 10843 10843 10843 10842 10841 10840 10839 10835 10831 10827 10824 10819 10815 10812 10808 10801 10794 10787 10780 10775 10767 10758 10750 10742 10731 10719 10707 10696 10682 10669 10652 10636 10622
10819 10821 10822 10824 10826 10828 10830 10832 10834 10836 10837 10838 10839 10838 10837 10835 10833 10832 10830 10827 10823 10820 10816 10810 10807 10801 10798 10792 10782 10779 10771 10764 10757 10746 10736 10729 10720 10707 10695 10683 10667 10656 10639 10622 10608
10816 10818 10820 10822 10824 10825 10827 10829 10830 10832 10833 10834 10834 10833 10830 10828 10826 10823 10822 10819 10817 10812 10808 10804 10800 10790 10787 10786 10778 10766 10759 10752 10743 10734 10724 10712 10709 10694 10679 10668 10655 10638 10626 10610 10592
10814 10816 10818 10820 10821 10823 10824 10825 10826 10828 10829 10830 10829 10827 10824 10822 10818 10816 10815 10812 10809 10805 10800 10795 10789 10784 10776 10768 10765 10758 10750 10742 10733 10723 10714 10705 10691 10683 10671 10656 10641 10627 10611 10596 10582
10812 10814 10815 10817 10819 10820 10821 10822 10822 10823 10824 10824 10822 10820 10818 10815 10813 10810 10807 10804 10800 10797 10791 10786 10781 10774 10767 10760 10753 10747 10739 10730 10722 10713 10703 10692 10681 10671 10658 10645 10630 10614 10601 10586 10573
10809 10811 10813 10815 10816 10817 10818 10818 10818 10819 10819 10817 10816 10814 10812 10810 10807 10804 10800 10796 10794 10789 10782 10775 10770 10764 10757 10750 10744 10736 10728 10720 10712 10703 10694 10685 10676 10666 10650 10633 10622 10607 10593 10581 10571
10807 10809 10811 10812 10813 10814 10814 10814 10814 10814 10813 10812 10811 10808 10806 10803 10799 10796 10792 10787 10782 10778 10773 10766 10760 10753 10746 10739 10732 10723 10717 10710 10703 10696 10686 10677 10667 10655 10646 10630 10616 10605 10590 10579 10572